PROMETHEUS 2-8 (47345 NORAD) Tracking and Keplerian Element Data

This shows tracking and keplerian element data for the satellite.

Feedback or suggestion? Click here.




ElementValue
Catalog47345
NamePROMETHEUS 2-8
Epoch Orbit1305
Epoch Day105.63215781
Epoch Year2021
RAAN166.0016
Inclination60.6849
Eccentricity0.0027532
Argument of Perigee3.6201
Mean Anonmoly356.5079
Mean Motion15.22198913
Decay Rate2.514E-05
L11 47345U 21002N 21105.63215781 .00002514 00000-0 11945-3 0 9995
L22 47345 60.6849 166.0016 0027532 3.6201 356.5079 15.22198913 13054

Live tracking and technical data element details for PROMETHEUS 2-8 (NORAD 47345). PROMETHEUS 2-8 can be tracked NOW for your location showing map with azimuth and elevation plus other details from your city location.

Track the satellite on the map from your city or location and see movement details for azimuth, elevation, latitude, longitude, range, height, and movement on the map or in text.







IsCatalogInMostPopularTable: catalog: 47345, numindb: 21
Update: records affected: 1



GetName: 47345 PROMETHEUS 2-8

Hit Count: updated at: Fri, 16 Apr 2021 10:26:40 GMT